WetterOnline ( http://www.wetteronline.de )

Wetter aktuell Freising

Aktuelles Wetter: Weihenstephan-Dürnast (478m)

6-stündlich | Neueste Meldungen
Ortszeit Temperatur Wetter
Do, 21.02. 7:00 1.7° C bedeckt
Do, 21.02. 1:00 3.1° C bedeckt
Mi, 20.02. 19:00 5.8° C bedeckt
Mi, 20.02. 13:00 8.3° C bewölkt
Mi, 20.02. 7:00 3.2° C bedeckt
Mi, 20.02. 1:00 4.8° C bedeckt
Di, 19.02. 19:00 8.9° C bedeckt
Di, 19.02. 13:00 9.5° C bewölkt
Ortszeit Temperatur Wetter
Do, 21.02. 8:30 1.8° C bewölkt
Do, 21.02. 8:20 1.8° C bewölkt
Do, 21.02. 8:10 2.4° C bewölkt
Do, 21.02. 8:00 1.3° C bewölkt
Do, 21.02. 7:50 1.3° C bewölkt
Do, 21.02. 7:40 0.9° C bewölkt
Do, 21.02. 7:30 1.5° C bewölkt
Do, 21.02. 7:00 1.7° C bedeckt
Do, 21.02. 6:30 1.1° C bewölkt
Do, 21.02. 6:00 1.6° C bewölkt
Do, 21.02. 5:30 1.9° C wolkig
Ortszeit Relative Feuchte Sichtweite
Do, 21.02. 7:00 96% 4.4 km
Do, 21.02. 1:00 97% 5.0 km
Mi, 20.02. 19:00 82% 21 km
Mi, 20.02. 13:00 72% 17 km
Mi, 20.02. 7:00 95% 9 km
Mi, 20.02. 1:00 86% 16 km
Di, 19.02. 19:00 67% 24 km
Di, 19.02. 13:00 60% 23 km
Ortszeit Relative Feuchte Sichtweite
Do, 21.02. 8:30 94% 3.0 km
Do, 21.02. 8:20 94% -
Do, 21.02. 8:10 94% -
Do, 21.02. 8:00 98% 3.3 km
Do, 21.02. 7:50 98% -
Do, 21.02. 7:40 98% -
Do, 21.02. 7:30 92% 3.8 km
Do, 21.02. 7:00 96% 4.4 km
Do, 21.02. 6:30 100% 3.3 km
Do, 21.02. 6:00 99% 3.0 km
Do, 21.02. 5:30 95% 4.2 km
Ortszeit Niederschlagsmenge Niederschlagsart
Do, 21.02. 7:00 0.0 l/m2 in 12 Std. -
Do, 21.02. 1:00 0.0 l/m2 in 6 Std. -
Mi, 20.02. 19:00 0.0 l/m2 in 12 Std. -
Mi, 20.02. 13:00 0.0 l/m2 in 6 Std. -
Mi, 20.02. 7:00 0.1 l/m2 in 12 Std. -
Mi, 20.02. 1:00 0.1 l/m2 in 6 Std. Regen
Di, 19.02. 19:00 0.0 l/m2 in 12 Std. -
Di, 19.02. 13:00 0.0 l/m2 in 6 Std. -
Ortszeit Niederschlagsmenge Niederschlagsart
Do, 21.02. 8:30 0.0 l/m2 in 1 Std. -
Do, 21.02. 8:20 keine Meldung -
Do, 21.02. 8:10 keine Meldung -
Do, 21.02. 8:00 0.0 l/m2 in 1 Std. -
Do, 21.02. 7:50 keine Meldung -
Do, 21.02. 7:40 keine Meldung -
Do, 21.02. 7:30 0.0 l/m2 in 1 Std. -
Do, 21.02. 7:00 0.0 l/m2 in 1 Std. -
Do, 21.02. 6:30 0.0 l/m2 in 1 Std. -
Do, 21.02. 6:00 0.0 l/m2 in 1 Std. -
Do, 21.02. 5:30 0.0 l/m2 in 1 Std. -
Ortszeit Stärke Spitze Richtung
km/h Bft. km/h Grad Sektor
Do, 21.02. 7:00 4 1 7 250° W
Do, 21.02. 1:00 0 0 4 - -
Mi, 20.02. 19:00 4 1 22 260° W
Mi, 20.02. 13:00 15 3 20 250° W
Mi, 20.02. 7:00 0 0 7 - -
Mi, 20.02. 1:00 6 1 20 260° W
Di, 19.02. 19:00 9 2 33 300° NW
Di, 19.02. 13:00 19 3 31 260° W
Ortszeit Stärke Spitze Richtung
km/h Bft. km/h Grad Sektor
Do, 21.02. 8:30 4 1 4 290° W
Do, 21.02. 8:20 4 1 - 290° W
Do, 21.02. 8:10 0 0 - 360° N
Do, 21.02. 8:00 0 0 4 - -
Do, 21.02. 7:50 0 0 - 320° NW
Do, 21.02. 7:40 2 1 - 270° W
Do, 21.02. 7:30 4 1 4 210° SW
Do, 21.02. 7:00 4 1 7 250° W
Do, 21.02. 6:30 2 1 6 270° W
Do, 21.02. 6:00 0 0 7 - -
Do, 21.02. 5:30 4 1 7 250° W
Ortszeit Untergrenze Bedeckung Gattung
total tief tief mittel hoch
Do, 21.02. 7:00 1050 m 8/8 8/8 - - -
Do, 21.02. 1:00 2700 m 8/8 8/8 - - -
Mi, 20.02. 19:00 3600 m 8/8 8/8 - - -
Mi, 20.02. 13:00 930 m 8/8 4/8 - - -
Mi, 20.02. 7:00 990 m 8/8 8/8 - - -
Mi, 20.02. 1:00 1230 m 8/8 8/8 - - -
Di, 19.02. 19:00 1320 m 8/8 8/8 - - -
Di, 19.02. 13:00 1800 m 7/8 6/8 - - -
Ortszeit Bedeckungsgrad in Achtel und Wolkenuntergrenze
Do, 21.02. 8:30 7(2400m)
Do, 21.02. 8:20 7(2400m)
Do, 21.02. 8:10 7(2400m)
Do, 21.02. 8:00 7(2400m)
Do, 21.02. 7:50 7(2400m)
Do, 21.02. 7:40 7(2400m)
Do, 21.02. 7:30 7(2400m)
Do, 21.02. 7:00 7(1050m) 8(2400m) 8(6300m)
Do, 21.02. 6:30 4(1080m) 7(2400m)
Do, 21.02. 6:00 7(2700m) 7(12000m)
Do, 21.02. 5:30 6(2700m) 6(12000m)
Ortszeit Luftdruck NN (hPa) Tendenz (hPa in 3 Std.)
Do, 21.02. 7:00 1030 + 0,4
Do, 21.02. 1:00 1029 + 0,3
Mi, 20.02. 19:00 1027 + 0,7
Mi, 20.02. 13:00 1026 + 0,6
Mi, 20.02. 7:00 1025 + 0,5
Mi, 20.02. 1:00 1024 + 0,8
Di, 19.02. 19:00 1021 + 0,7
Di, 19.02. 13:00 1021 - 0,3
Ortszeit Luftdruck NN (hPa) Tendenz (hPa in 3 Std.)
Do, 21.02. 8:30 1031 + 1,0
Do, 21.02. 8:20 1031 keine Meldung
Do, 21.02. 8:10 1030 keine Meldung
Do, 21.02. 8:00 1030 + 0,9
Do, 21.02. 7:50 1030 keine Meldung
Do, 21.02. 7:40 1030 keine Meldung
Do, 21.02. 7:30 1030 + 0,6
Do, 21.02. 7:00 1030 + 0,4
Do, 21.02. 6:30 1030 + 0,4
Do, 21.02. 6:00 1030 + 0,3
Do, 21.02. 5:30 1029 + 0,3
Ortszeit Schneehöhe (cm)
Do, 21.02. 7:00 0
Do, 21.02. 1:00 0
Mi, 20.02. 19:00 0
Mi, 20.02. 13:00 0
Mi, 20.02. 7:00 0
Mi, 20.02. 1:00 0
Di, 19.02. 19:00 0
Di, 19.02. 13:00 0
Ortszeit Schneehöhe (cm)
Do, 21.02. 8:30 0
Do, 21.02. 8:20 0
Do, 21.02. 8:10 0
Do, 21.02. 8:00 0
Do, 21.02. 7:50 0
Do, 21.02. 7:40 0
Do, 21.02. 7:30 0
Do, 21.02. 7:00 0
Do, 21.02. 6:30 0
Do, 21.02. 6:00 0
Do, 21.02. 5:30 0
Link zu dieser Seite / Seite empfehlen

Das Wetter in ...